Date String (YYYY-MM-DD hh:mm:ss) UTC,Instrument flags,Ambient pressure (hPa),Sample flow (lpm),Bypass flow (lpm),Sample temperature (°C),Ambient temperature (°C),ASC tube jacket temperature (°C),LED temperature (°C),Box temperature (°C),Sample RH (%),Span deviation,Mass concentration (μg/m³),Mass concentration (μg/m³),Mass concentration (μg/m³)
DateTimeUTC,F1_M11,P_M11,Q1_M11,Q2_M11,T1_M11,T2_M11,T3_M11,T4_M11,T5_M11,U1_M11,ZSPAN_M11,X0_M11,X2_M11,X1_M11
2021-12-07 22:00:00,,0818.3,5.00,0.00,24.0,23.1,00.0,33.0,25.7,09.3,0000.0,0005.76,0000.67,0000.35
2021-12-07 22:01:00,,0818.2,5.01,0.00,24.0,23.1,00.0,33.0,25.6,09.3,0000.0,0005.75,0000.69,0000.36
2021-12-07 22:02:00,,0818.2,5.00,0.00,23.9,23.1,00.0,33.0,25.6,09.2,0000.0,0005.59,0000.70,0000.37
2021-12-07 22:03:00,,0818.2,5.01,0.00,23.9,23.1,00.0,33.0,25.6,09.3,0000.0,0005.13,0000.67,0000.37
2021-12-07 22:04:00,,0818.3,5.00,0.00,23.9,23.1,00.0,33.0,25.6,09.2,0000.0,0004.68,0000.68,0000.38
2021-12-07 22:05:00,,0818.3,5.00,0.00,23.9,23.1,00.0,33.0,25.6,09.2,0000.0,0003.35,0000.72,0000.39
2021-12-07 22:06:00,,0818.2,5.00,0.00,23.9,23.1,00.0,33.0,25.6,09.2,0000.0,0002.66,0000.72,0000.40
2021-12-07 22:07:00,,0818.3,5.00,0.00,23.9,23.1,00.0,33.0,25.7,09.1,0000.0,0003.33,0000.74,0000.41
2021-12-07 22:08:00,,0818.4,5.00,0.00,23.9,23.1,00.0,33.0,25.7,09.2,0000.0,0003.87,0000.75,0000.42
2021-12-07 22:09:00,,0818.4,5.01,0.00,23.9,23.1,00.0,32.9,25.6,09.3,0000.0,0003.68,0000.78,0000.42
2021-12-07 22:10:00,,0818.4,4.98,0.00,23.9,23.0,00.0,32.9,25.5,09.3,0000.0,0005.20,0000.81,0000.42
2021-12-07 22:11:00,,0818.4,5.00,0.00,23.9,23.0,00.0,32.9,25.5,09.3,0000.0,0006.85,0000.81,0000.42
2021-12-07 22:12:00,,0818.4,5.02,0.00,23.9,23.0,00.0,32.9,25.6,09.3,0000.0,0008.00,0000.79,0000.42
2021-12-07 22:13:00,,0818.4,4.98,0.00,23.9,23.0,00.0,32.9,25.5,09.2,0000.0,0008.26,0000.79,0000.42
2021-12-07 22:14:00,,0818.4,5.00,0.00,23.9,23.0,00.0,32.9,25.5,09.2,0000.0,0008.23,0000.78,0000.42
2021-12-07 22:15:00,,0818.4,5.01,0.00,23.9,23.0,00.0,32.9,25.5,09.3,0000.0,0008.51,0000.80,0000.42
2021-12-07 22:16:00,,0818.5,4.99,0.00,23.9,23.0,00.0,32.9,25.6,09.3,0000.0,0008.87,0000.80,0000.42
2021-12-07 22:17:00,,0818.4,5.01,0.00,23.9,23.0,00.0,32.9,25.6,09.2,0000.0,0009.07,0000.83,0000.42
2021-12-07 22:18:00,,0818.4,4.99,0.00,23.9,23.1,00.0,32.9,25.6,09.2,0000.0,0009.21,0000.86,0000.43
2021-12-07 22:19:00,,0818.4,5.01,0.00,24.0,23.1,00.0,32.9,25.6,09.2,0000.0,0009.05,0000.85,0000.44
2021-12-07 22:20:00,,0818.4,5.01,0.00,24.0,23.1,00.0,32.9,25.6,09.3,0000.0,0009.96,0000.82,0000.44
2021-12-07 22:21:00,,0818.7,4.99,0.00,24.0,23.1,00.0,32.9,25.6,09.3,0000.0,0009.92,0000.81,0000.44
2021-12-07 22:22:00,,0818.6,5.01,0.00,24.0,23.1,00.0,32.9,25.6,09.3,0000.0,0008.89,0000.86,0000.45
2021-12-07 22:23:00,,0818.5,5.00,0.00,24.0,23.1,00.0,33.0,25.7,09.3,0000.0,0007.96,0000.85,0000.45
2021-12-07 22:24:00,,0818.5,5.00,0.00,24.0,23.1,00.0,33.0,25.7,09.3,0000.0,0007.54,0000.83,0000.44
2021-12-07 22:25:00,,0818.6,4.99,0.00,24.0,23.1,00.0,33.0,25.6,09.3,0000.0,0007.53,0000.82,0000.45
2021-12-07 22:26:00,,0818.7,5.00,0.00,24.0,23.1,00.0,33.0,25.6,09.3,0000.0,0007.09,0000.78,0000.45
2021-12-07 22:27:00,,0818.8,5.01,0.00,24.0,23.1,00.0,33.0,25.6,09.4,0000.0,0006.40,0000.77,0000.45
2021-12-07 22:28:00,,0818.8,5.00,0.00,24.0,23.1,00.0,33.0,25.6,09.4,0000.0,0005.69,0000.74,0000.44
2021-12-07 22:29:00,,0818.8,5.01,0.00,24.0,23.0,00.0,33.0,25.6,09.5,0000.0,0004.79,0000.71,0000.43
2021-12-07 22:30:00,,0818.7,5.00,0.00,24.0,23.1,00.0,33.0,25.7,09.4,0000.0,0004.06,0000.70,0000.43
2021-12-07 22:31:00,,0818.7,4.99,0.00,24.0,23.1,00.0,33.0,25.7,09.4,0000.0,0002.24,0000.71,0000.42
2021-12-07 22:32:00,,0818.7,5.00,0.00,24.0,23.1,00.0,33.0,25.7,09.6,0000.0,0001.74,0000.70,0000.41
2021-12-07 22:33:00,,0818.8,5.00,0.00,24.0,23.1,00.0,33.0,25.7,09.6,0000.0,0001.41,0000.65,0000.40
2021-12-07 22:34:00,,0818.8,5.00,0.00,24.0,23.2,00.0,33.0,25.7,09.6,0000.0,0001.44,0000.65,0000.39
2021-12-07 22:35:00,,0818.7,4.99,0.00,24.0,23.2,00.0,33.0,25.7,09.6,0000.0,0001.55,0000.67,0000.39
2021-12-07 22:36:00,,0818.4,5.02,0.00,24.0,23.2,00.0,33.0,25.7,09.5,0000.0,0001.73,0000.68,0000.38
2021-12-07 22:37:00,,0818.7,4.99,0.00,24.0,23.2,00.0,33.0,25.7,09.5,0000.0,0001.78,0000.69,0000.38
2021-12-07 22:38:00,,0818.8,5.00,0.00,24.0,23.2,00.0,33.0,25.7,09.5,0000.0,0001.80,0000.68,0000.38
2021-12-07 22:39:00,,0818.7,5.00,0.00,24.1,23.2,00.0,33.0,25.8,09.5,0000.0,0002.32,0000.68,0000.38
2021-12-07 22:40:00,,0818.7,5.01,0.00,24.1,23.2,00.0,33.0,25.9,09.5,0000.0,0003.03,0000.69,0000.38
2021-12-07 22:41:00,,0818.7,4.98,0.00,24.1,23.2,00.0,33.0,25.9,09.5,0000.0,0003.78,0000.71,0000.38
2021-12-07 22:42:00,,0818.7,5.00,0.00,24.1,23.3,00.0,33.0,25.9,09.6,0000.0,0003.89,0000.71,0000.38
2021-12-07 22:43:00,,0818.6,5.00,0.00,24.1,23.3,00.0,33.1,25.9,09.6,0000.0,0003.85,0000.69,0000.37
2021-12-07 22:44:00,,0818.7,5.00,0.00,24.1,23.3,00.0,33.1,25.9,09.6,0000.0,0003.87,0000.70,0000.37
2021-12-07 22:45:00,,0818.6,5.00,0.00,24.1,23.3,00.0,33.1,25.9,09.7,0000.0,0003.97,0000.72,0000.37
2021-12-07 22:46:00,,0818.6,5.01,0.00,24.2,23.3,00.0,33.1,25.9,09.7,0000.0,0004.43,0000.71,0000.37
2021-12-07 22:47:00,,0818.8,4.99,0.00,24.2,23.4,00.0,33.1,25.9,09.7,0000.0,0004.65,0000.77,0000.37
2021-12-07 22:48:00,,0818.9,5.00,0.00,24.2,23.4,00.0,33.1,26.0,09.7,0000.0,0005.69,0000.84,0000.36
2021-12-07 22:49:00,,0818.9,5.02,0.00,24.2,23.4,00.0,33.1,26.0,09.8,0000.0,0005.80,0000.86,0000.36
2021-12-07 22:50:00,,0818.9,4.99,0.00,24.2,23.4,00.0,33.1,25.9,09.7,0000.0,0006.59,0000.90,0000.36
2021-12-07 22:51:00,,0818.9,4.99,0.00,24.2,23.4,00.0,33.1,25.9,09.7,0000.0,0006.53,0000.93,0000.35
2021-12-07 22:52:00,,0818.9,5.02,0.00,24.2,23.4,00.0,33.1,25.9,09.8,0000.0,0005.96,0000.91,0000.35
2021-12-07 22:53:00,,0818.8,5.00,0.00,24.2,23.4,00.0,33.1,26.0,09.7,0000.0,0005.78,0000.91,0000.35
2021-12-07 22:54:00,,0818.7,4.99,0.00,24.2,23.4,00.0,33.1,26.0,09.7,0000.0,0005.98,0000.97,0000.36
2021-12-07 22:55:00,,0818.8,5.01,0.00,24.2,23.5,00.0,33.2,26.1,09.8,0000.0,0006.02,0000.98,0000.36
2021-12-07 22:56:00,,0818.8,4.99,0.00,24.3,23.5,00.0,33.2,26.1,09.7,0000.0,0005.93,0000.96,0000.37
2021-12-07 22:57:00,,0818.8,5.00,0.00,24.3,23.5,00.0,33.2,26.1,09.7,0000.0,0005.57,0000.96,0000.37
2021-12-07 22:58:00,,0818.7,5.00,0.00,24.3,23.6,00.0,33.2,26.1,09.7,0000.0,0005.35,0000.91,0000.37
2021-12-07 22:59:00,,0818.8,5.00,0.00,24.3,23.6,00.0,33.2,26.1,09.9,0000.0,0004.28,0000.86,0000.36
